Regional Weather Roundup
Issued by NWS

Home | Current Version | Previous Version | Graphics & Text | Print | Product List | Glossary On
Versions: 1 2 3 4 5 6 7 8 9 10 11 12 13 14 15 16 17 18 19 20 21 22 23 24 25 26 27 28 29 30 31 32 33 34 35 36 37 38 39 40 41 42 43 44 45 46 47 48 49 50
000
ASUS43 KTOP 311359
RWRKS

WEATHER ROUNDUP FOR KANSAS
NATIONAL WEATHER SERVICE GOODLAND KS
800 AM CST SAT JAN 31 2015

NOTE:  "FAIR" INDICATES FEW OR NO CLOUDS BELOW 12,000 FEET WITH NO
SIGNIFICANT WEATHER AND/OR OBSTRUCTIONS TO VISIBILITY.

KSZ001>006-013>018-027>032-041>047-311500-
NORTHWEST KANSAS

CITY           SKY/WX    TMP DP  RH WIND       PRES   REMARKS
GOODLAND       CLOUDY    34  33  96 SW3       29.89F
HAYS           CLOUDY    34  25  69 E7        30.04F
HILL CITY      CLOUDY    34  32  92 SE5       30.01S
RUSSELL        LGT RAIN  33  32  96 SE12      30.04F FOG     WCI  24
$$

KSZ061>065-074>080-084>089-311500-
SOUTHWEST KANSAS

CITY           SKY/WX    TMP DP  RH WIND       PRES   REMARKS
DODGE CITY     LGT RAIN  34  31  88 S18       30.02F WCI  23
ELKHART          N/A     34  28  79 S10         N/A  WCI  26
GARDEN CITY    CLOUDY    34  33  96 S20       29.97S WCI  23
LIBERAL        CLOUDY    36  30  80 S15       30.03S WCI  26
$$

KSZ066>073-081>083-090>101-311500-
SOUTHEAST KANSAS

CITY           SKY/WX    TMP DP  RH WIND       PRES   REMARKS
CHANUTE        CLOUDY    39  33  79 SE7       30.23R
COFFEYVILLE    CLOUDY    39  31  72 SE7       30.22F
HUTCHINSON     LGT RAIN  34  30  85 SE12      30.13F WCI  25
MEDICINE LODGE   N/A     34  33  96 SE6       30.12F
NEWTON         CLOUDY    34  27  75 SE7       30.17S
PARSONS        CLOUDY    40  31  70 SE3       30.24R
WICHITA INTL   LGTSLEET  35  30  82 SE5       30.15F
WICHITA JABRA  RAIN      36  29  75 S7        30.16F
WICHITA MCCONL LGT RAIN  37  30  75 SE5       30.16F
WINFIELD       LGT RAIN  38  28  67 SE7       30.18F
$$

KSZ007>012-019>026-033>040-048>060-102>105-311500-
NORTHEAST KANSAS

CITY           SKY/WX    TMP DP  RH WIND       PRES   REMARKS
CONCORDIA      LGT SNOW  32  32 100 SE10      30.12F FOG     WCI  24
EMPORIA        CLOUDY    37  35  92 SE8       30.19R
LAWRENCE       LGT RAIN  34  32  92 E7        30.24S FOG
MANHATTAN      CLOUDY    36  36 100 E3        30.18F
OLATHE IND     LGT RAIN  35  34  96 E5        30.23F FOG
OLATHE EXE     LGT RAIN  35  34  96 E3        30.23S FOG
SALINA         CLOUDY    37  31  78 SE10      30.14F WCI  30
TOPEKA BILLARD CLOUDY    35  34  96 E7        30.21F FOG
TOPEKA FORBES  CLOUDY    37  35  92 E7        30.20S
$$


USA.gov is the U.S. government's official web portal to all federal, state and local government web resources and services.